Location: Castro Valley
(37.6940°N, 122.0850°W)
Time: 18:15:59
(UTC-08:00)

Amateur Radio Satellites - All Passes

Search period start: 18 December 2014 17:45
Search period end: 19 December 2014 17:45
Location: Castro Valley, 37.6940°N, 122.0850°W

Satellite Date Start Highest point End Downlink Frequencies (MHz)
Time Altitude Azimuth
RS-15 18 Dec 17:46:55 17:53:19 16° 13° (NNE) 17:59:50 29.354- 29.394
AIST 1 18 Dec 17:52:35 17:55:30 17° 287° (WNW) 17:58:24
JAS-2 18 Dec 17:59:02 18:04:43 22° 267° (W) 18:10:10 435.910
CUBESAT XI-V 18 Dec 18:03:13 18:06:45 22° 94° (E) 18:10:17 437.345
CUTE-I 18 Dec 18:15:39 18:20:42 44° 261° (W) 18:25:46 437.470
PRISM 18 Dec 18:18:45 18:22:55 72° 102° (ESE) 18:27:01 437.425
MOZHAYETS 4 18 Dec 18:24:17 18:27:04 16° 295° (WNW) 18:29:51
HO-68 18 Dec 18:46:09 18:51:17 22° 59° (ENE) 18:56:25 435.675
MaSat-1 18 Dec 18:53:39 18:56:04 83° 67° (ENE) 18:58:39 437.345
STRAND 1 18 Dec 18:58:08 19:03:14 70° 102° (ESE) 19:08:17 437.568
BRITE-PL 18 Dec 19:05:11 19:06:45 12° 65° (ENE) 19:08:20 437.365/2234.400
GONETS M04 18 Dec 19:23:53 19:27:34 13° 284° (WNW) 19:31:16
CUSAT 1 18 Dec 19:24:40 19:30:30 23° 70° (ENE) 19:36:47 437.405
CUBESAT XI-V 18 Dec 19:40:08 19:44:13 32° 289° (WNW) 19:48:17 437.345
GOMX 1 18 Dec 19:40:48 19:43:56 21° 69° (ENE) 19:47:05 467.674
AAUSAT CUBESAT 2 18 Dec 19:41:40 19:44:37 19° 68° (ENE) 19:47:34 437.432
CANX-2 18 Dec 19:46:34 19:50:29 37° 72° (ENE) 19:54:26 2200.000
RS-15 18 Dec 19:59:42 20:10:07 41° 45° (NE) 20:20:53 29.354- 29.394
DANDE 18 Dec 20:05:16 20:12:16 38° 75° (ENE) 20:20:08 436.750
COMPASS 1 18 Dec 20:14:09 20:18:13 50° 74° (ENE) 20:22:20 437.405
DOVE 4 18 Dec 20:15:03 20:18:52 37° 72° (ENE) 20:22:44 437.250
SEEDS 18 Dec 20:16:41 20:20:53 66° 76° (ENE) 20:25:07 437.485
CUTE 1.7 + AOD 2 18 Dec 20:17:17 20:21:32 79° 77° (ENE) 20:25:50 437.475
SO-50 18 Dec 20:18:10 20:20:48 16° 108° (ESE) 20:23:29 436.795
DX 1 18 Dec 20:21:24 20:24:44 22° 68° (ENE) 20:28:03 434.975-435.025
HO-68 18 Dec 20:31:07 20:38:16 71° 256° (WSW) 20:45:28 435.675
ISS 18 Dec 20:33:23 20:36:26 36° 34° (NE) 20:39:29 145.825
STRAND 1 18 Dec 20:39:23 20:41:47 13° 298° (WNW) 20:44:10 437.568
BRITE-PL 18 Dec 20:40:46 20:44:53 49° 260° (W) 20:48:55 437.365/2234.400
DELFI C3 18 Dec 20:43:27 20:47:15 38° 73° (ENE) 20:51:05 145.870
Oscar 11 18 Dec 20:46:32 20:50:43 51° 74° (ENE) 20:54:57 145.826/435.025
CUBEBUG 2 18 Dec 20:52:30 20:56:17 35° 72° (ENE) 21:00:08 437.445
UKube-1 18 Dec 20:53:45 20:57:55 48° 73° (ENE) 21:02:05 .
HUMSAT D 18 Dec 20:53:53 20:56:16 15° 66° (ENE) 20:58:40 437.325/437.525
CINEMA 3 18 Dec 20:55:17 20:59:22 65° 75° (ENE) 21:03:33 145.822/145.860
CUSAT 1 18 Dec 21:06:22 21:14:04 77° 264° (W) 21:22:35 437.405
VELOX 1 18 Dec 21:07:14 21:10:40 23° 68° (ENE) 21:14:06 145.980
ZACube-1 18 Dec 21:11:50 21:15:45 42° 73° (ENE) 21:19:45 437.345
AAUSAT CUBESAT 2 18 Dec 21:16:15 21:20:01 33° 263° (W) 21:23:51 437.432
GOMX 1 18 Dec 21:18:27 21:21:57 26° 264° (W) 21:25:27 467.674
BEESAT 3 18 Dec 21:18:49 21:19:30 10° 42° (NE) 21:20:11 437.485
CANX-2 18 Dec 21:23:49 21:26:32 17° 267° (W) 21:29:16 2200.000
UWE-3 18 Dec 21:34:32 21:38:41 84° 258° (WSW) 21:42:56 435.000/436.395/437.385
FUNcube-1 18 Dec 21:38:57 21:43:06 90° 76° (ENE) 21:47:21 145.935
AISAT 18 Dec 21:48:07 21:52:30 66° 75° (ENE) 21:56:53 437.250
DANDE 18 Dec 21:48:31 21:55:46 47° 268° (W) 22:03:53 436.750
COMPASS 1 18 Dec 21:52:40 21:54:13 12° 269° (W) 21:55:46 437.405
DUCHIFAT 1 18 Dec 21:54:05 21:54:34 10° 91° (E) 21:55:04 145.980
DOVE 4 18 Dec 21:54:32 21:56:50 15° 267° (W) 21:59:09 437.250
BEESAT 2 18 Dec 21:54:50 21:57:58 20° 49° (NE) 22:01:04 435.950
SO-50 18 Dec 21:56:27 22:00:51 51° 305° (NW) 22:05:25 436.795
DX 1 18 Dec 21:56:58 22:00:47 30° 263° (W) 22:04:37 434.975-435.025
ANTELSAT 18 Dec 21:57:59 22:01:41 22° 95° (E) 22:05:22 437.575/2403.000
PCSat 18 Dec 22:00:47 22:03:49 15° 45° (NE) 22:06:50 145.827
CUBEBUG 1 18 Dec 22:02:01 22:05:54 32° 71° (ENE) 22:09:47 437.445
QB50P2 18 Dec 22:04:20 22:06:47 15° 93° (E) 22:09:14 145.880/145.840
ISS 18 Dec 22:10:21 22:12:51 20° 229° (SW) 22:15:20 145.825
RS-15 18 Dec 22:11:57 22:23:01 62° 247° (WSW) 22:34:36 29.354- 29.394
POLYITAN 1 18 Dec 22:11:57 22:14:58 18° 94° (E) 22:17:58 437.675
NANOSAT C BR1 18 Dec 22:15:52 22:19:01 20° 95° (E) 22:22:10 145.865
DELFI C3 18 Dec 22:20:17 22:22:40 15° 267° (W) 22:25:03 145.870
50 SAT 18 Dec 22:20:55 22:24:51 60° 259° (W) 22:28:52 437.505
Oscar 11 18 Dec 22:25:28 22:27:11 12° 269° (W) 22:28:54 145.826/435.025
HUMSAT D 18 Dec 22:27:51 22:31:43 40° 262° (W) 22:35:39 437.325/437.525
QB50P1 18 Dec 22:29:28 22:33:10 29° 97° (E) 22:36:53 145.935-145.965
CUBEBUG 2 18 Dec 22:30:30 22:33:07 16° 267° (W) 22:35:47 437.445
UKube-1 18 Dec 22:32:17 22:34:19 13° 267° (W) 22:36:20 .
TIGRISAT 18 Dec 22:34:05 22:38:42 54° 100° (E) 22:43:19 435.000
YUBILEINY 18 Dec 22:34:17 22:39:57 19° 80° (E) 22:45:35 435.215
ESTCUBE 1 18 Dec 22:37:39 22:42:12 88° 76° (ENE) 22:46:46 437.505/2401.250
VELOX 1 18 Dec 22:43:11 22:47:04 30° 263° (W) 22:50:58 145.980
AIST 2 18 Dec 22:49:50 22:53:45 33° 53° (NE) 22:57:35 435.215
ZACube-1 18 Dec 22:50:14 22:52:21 14° 268° (W) 22:54:29 437.345
CUSAT 1 18 Dec 22:52:27 22:56:15 14° 278° (W) 23:00:12 437.405
BEESAT 3 18 Dec 22:54:08 22:58:19 89° 60° (ENE) 23:02:26 437.485
POPSAT HIP 1 18 Dec 22:57:29 23:01:43 63° 101° (E) 23:05:57 437.405
UNISAT 6 18 Dec 23:02:08 23:06:50 74° 284° (WNW) 23:11:33 437.425
SPROUT 18 Dec 23:17:34 23:21:42 49° 74° (ENE) 23:25:50 437.525
TISAT 1 18 Dec 23:20:37 23:24:45 60° 75° (ENE) 23:28:54 437.305
DUCHIFAT 1 18 Dec 23:26:35 23:30:46 58° 285° (WNW) 23:34:56 145.980
BEESAT 2 18 Dec 23:32:28 23:36:21 38° 246° (WSW) 23:40:11 435.950
ANTELSAT 18 Dec 23:34:15 23:38:29 34° 289° (WNW) 23:42:43 437.575/2403.000
BUGSAT 1 18 Dec 23:35:08 23:39:07 56° 285° (WNW) 23:43:05 437.445
QB50P2 18 Dec 23:38:51 23:42:52 41° 287° (WNW) 23:46:52 145.880/145.840
CUBEBUG 1 18 Dec 23:39:05 23:42:18 20° 265° (W) 23:45:31 437.445
BEESAT 18 Dec 23:40:35 23:43:25 16° 64° (ENE) 23:46:15 436.000
PCSat 18 Dec 23:42:29 23:47:56 86° 244° (WSW) 23:53:21 145.827
POLYITAN 1 18 Dec 23:47:06 23:50:58 33° 289° (WNW) 23:54:49 437.675
NANOSAT C BR1 18 Dec 23:51:11 23:54:54 30° 289° (WNW) 23:58:38 145.865
AUBIESAT-1 19 Dec 00:00:40 00:03:49 18° 60° (ENE) 00:07:01 437.475
QB50P1 19 Dec 00:05:38 00:08:53 22° 292° (WNW) 00:12:08 145.935-145.965
TIGRISAT 19 Dec 00:12:20 00:14:58 15° 295° (WNW) 00:17:37 435.000
M-CUBED/EXP-1 PRIME 19 Dec 00:23:34 00:27:47 32° 65° (ENE) 00:32:07 437.505
YUBILEINY 19 Dec 00:26:54 00:35:39 79° 278° (W) 00:44:25 435.215
AIST 2 19 Dec 00:28:53 00:32:09 22° 249° (WSW) 00:35:23 435.215
RS-15 19 Dec 00:32:38 00:33:07 10° 265° (W) 00:33:36 29.354- 29.394
POPSAT HIP 1 19 Dec 00:36:02 00:37:04 11° 296° (WNW) 00:38:06 437.405
ITUPSAT 1 19 Dec 00:50:13 00:55:02 81° 76° (ENE) 00:59:51 437.325
SWISSCUBE 19 Dec 00:50:32 00:55:21 90° 76° (ENE) 01:00:10 437.505
SPROUT 19 Dec 00:56:17 00:58:03 12° 268° (W) 00:59:48 437.525
O/OREOS (USA 219) 19 Dec 00:56:49 01:01:16 80° 109° (ESE) 01:05:44 437.305
KKS-1 19 Dec 01:13:26 01:17:09 27° 69° (ENE) 01:20:53 437.445
STARS 19 Dec 01:14:33 01:17:35 19° 67° (ENE) 01:20:38 437.465
BEESAT 19 Dec 01:16:07 01:20:48 53° 260° (W) 01:25:30 436.000
Gurwin Techsat 1B 19 Dec 01:26:32 01:27:53 11° 90° (E) 01:29:14 435.225
Oscar 19 19 Dec 01:27:28 01:32:36 57° 101° (E) 01:37:42 437.125/150
AUBIESAT-1 19 Dec 01:33:37 01:38:17 54° 256° (WSW) 01:43:06 437.475
ITAMSAT 1 19 Dec 01:39:41 01:43:59 26° 96° (E) 01:48:15 435.822/435.867
M-CUBED/EXP-1 PRIME 19 Dec 01:58:38 02:02:42 28° 260° (W) 02:06:54 437.505
YUBILEINY 19 Dec 02:29:44 02:33:56 14° 298° (WNW) 02:38:10 435.215
HORYU 2 19 Dec 02:36:43 02:40:04 20° 95° (E) 02:43:24 437.375
STARS 19 Dec 02:49:46 02:53:47 36° 262° (W) 02:57:50 437.465
KKS-1 19 Dec 02:50:08 02:53:44 24° 264° (W) 02:57:21 437.445
AO-7 19 Dec 02:56:30 03:01:50 18° 92° (E) 03:07:08 29.400- 29.500
VERMONT LUNAR 19 Dec 02:58:03 03:01:02 26° 149° (SSE) 03:04:01 437.305
Gurwin Techsat 1B 19 Dec 03:03:05 03:08:24 79° 285° (WNW) 03:13:41 435.225
PHONESAT 2.4 19 Dec 03:03:48 03:06:27 19° 146° (SSE) 03:09:06 2401.200-2431.200
Oscar 19 19 Dec 03:08:12 03:11:26 17° 296° (WNW) 03:14:39 437.125/150
ITAMSAT 1 19 Dec 03:18:51 03:23:28 34° 291° (WNW) 03:28:04 435.822/435.867
MOZHAYETS 4 19 Dec 03:46:04 03:50:18 36° 71° (ENE) 03:54:34
AIST 1 19 Dec 04:00:07 04:04:24 82° 264° (W) 04:08:39
HORYU 2 19 Dec 04:12:42 04:16:47 34° 289° (WNW) 04:20:50 437.375
GONETS M04 19 Dec 04:27:47 04:34:20 24° 81° (E) 04:40:53
VERMONT LUNAR 19 Dec 04:35:37 04:39:09 82° 344° (NNW) 04:42:41 437.305
PHONESAT 2.4 19 Dec 04:41:11 04:44:48 81° 161° (SSE) 04:48:27 2401.200-2431.200
AO-7 19 Dec 04:47:02 04:55:27 84° 289° (WNW) 05:03:48 29.400- 29.500
SO-50 19 Dec 04:50:53 04:53:06 13° 41° (NE) 04:55:19 436.795
CUBESAT XI-V 19 Dec 05:05:32 05:08:44 19° 67° (ENE) 05:11:57 437.345
PRISM 19 Dec 05:07:41 05:11:39 41° 72° (ENE) 05:15:38 437.425
JAS-2 19 Dec 05:09:36 05:15:14 67° 101° (E) 05:20:25 435.910
MOZHAYETS 4 19 Dec 05:24:13 05:27:36 20° 266° (W) 05:31:00
Cubesat XI-IV 19 Dec 06:00:48 06:05:49 42° 99° (E) 06:10:49 437.490
STRAND 1 19 Dec 06:12:07 06:17:14 83° 76° (ENE) 06:22:22 437.568
VERMONT LUNAR 19 Dec 06:14:13 06:17:40 51° 1° (N) 06:21:08 437.305
PHONESAT 2.4 19 Dec 06:20:05 06:23:39 53° 358° (N) 06:27:13 2401.200-2431.200
GONETS M04 19 Dec 06:21:32 06:30:19 67° 279° (W) 06:39:08
SO-50 19 Dec 06:29:28 06:34:23 84° 59° (ENE) 06:39:18 436.795
CUTE-I 19 Dec 06:34:20 06:39:41 87° 104° (ESE) 06:45:00 437.470
CUBESAT XI-V 19 Dec 06:41:26 06:45:51 41° 262° (W) 06:50:16 437.345
AO-7 19 Dec 06:41:49 06:47:00 18° 308° (NW) 06:52:11 29.400- 29.500
PRISM 19 Dec 06:44:57 06:47:20 15° 267° (W) 06:49:45 437.425
JAS-2 19 Dec 06:56:35 06:59:34 15° 301° (WNW) 07:02:26 435.910
Cubesat XI-IV 19 Dec 07:41:31 07:45:37 23° 294° (WNW) 07:49:42 437.490
VERMONT LUNAR 19 Dec 07:52:37 07:56:10 87° 198° (SSW) 07:59:43 437.305
PHONESAT 2.4 19 Dec 07:58:55 08:02:34 78° 15° (NNE) 08:06:12 2401.200-2431.200
HO-68 19 Dec 08:01:51 08:07:29 25° 95° (E) 08:13:04 435.675
SEEDS 19 Dec 08:05:14 08:07:14 13° 92° (E) 08:09:13 437.485
CUTE 1.7 + AOD 2 19 Dec 08:06:03 08:08:42 16° 93° (E) 08:11:20 437.475
MaSat-1 19 Dec 08:12:53 08:13:12 10° 107° (ESE) 08:13:30 437.345
SO-50 19 Dec 08:13:55 08:14:13 10° 254° (WSW) 08:14:31 436.795
DOVE 4 19 Dec 08:16:40 08:19:12 14° 92° (E) 08:21:47 437.250
CUTE-I 19 Dec 08:17:15 08:18:58 12° 300° (WNW) 08:20:40 437.470
GONETS M04 19 Dec 08:26:18 08:28:58 12° 301° (WNW) 08:31:38
Oscar 11 19 Dec 08:38:30 08:39:38 11° 91° (E) 08:40:45 145.826/435.025
BRITE-PL 19 Dec 08:46:02 08:50:39 55° 100° (E) 08:55:38 437.365/2234.400
CINEMA 3 19 Dec 08:52:26 08:55:55 20° 94° (E) 08:59:29 145.822/145.860
ANTELSAT 19 Dec 08:56:41 08:59:17 16° 65° (ENE) 09:01:56 437.575/2403.000
AAUSAT CUBESAT 2 19 Dec 09:01:23 09:05:27 43° 99° (E) 09:09:28 437.432
ZACube-1 19 Dec 09:05:17 09:06:02 10° 90° (E) 09:06:47 437.345
POLYITAN 1 19 Dec 09:05:26 09:06:59 12° 64° (ENE) 09:08:32 437.675
NANOSAT C BR1 19 Dec 09:08:40 09:10:31 13° 65° (ENE) 09:12:23 145.865
CANX-2 19 Dec 09:09:27 09:13:47 83° 283° (WNW) 09:18:06 2200.000
DANDE 19 Dec 09:20:11 09:22:54 25° 87° (E) 09:26:16 436.750
GOMX 1 19 Dec 09:20:11 09:24:57 89° 104° (ESE) 09:30:04 467.674
QB50P1 19 Dec 09:21:40 09:24:32 18° 67° (ENE) 09:27:24 145.935-145.965
UWE-3 19 Dec 09:26:51 09:30:32 24° 95° (E) 09:34:16 435.000/436.395/437.385
FUNcube-1 19 Dec 09:30:05 09:33:31 21° 94° (E) 09:36:57 145.935
VERMONT LUNAR 19 Dec 09:31:29 09:34:13 21° 213° (SSW) 09:36:56 437.305
TIGRISAT 19 Dec 09:31:34 09:35:31 36° 71° (ENE) 09:39:34 435.000
O/OREOS (USA 219) 19 Dec 09:31:52 09:33:10 11° 54° (NE) 09:34:28 437.305
COMPASS 1 19 Dec 09:35:32 09:39:46 63° 285° (WNW) 09:43:57 437.405
PHONESAT 2.4 19 Dec 09:37:54 09:41:05 29° 210° (SSW) 09:44:16 2401.200-2431.200
SEEDS 19 Dec 09:39:10 09:43:18 47° 286° (WNW) 09:47:23 437.485
CUTE 1.7 + AOD 2 19 Dec 09:40:44 09:44:46 39° 288° (WNW) 09:48:46 437.475
AISAT 19 Dec 09:42:42 09:45:12 15° 93° (E) 09:47:41 437.250
MaSat-1 19 Dec 09:45:08 09:46:25 13° 300° (WNW) 09:47:40 437.345
DX 1 19 Dec 09:46:44 09:50:58 51° 100° (E) 09:55:11 434.975-435.025
HO-68 19 Dec 09:48:33 09:55:31 58° 291° (WNW) 10:02:26 435.675
POPSAT HIP 1 19 Dec 09:49:00 09:52:52 36° 72° (ENE) 09:56:44 437.405
DOVE 4 19 Dec 09:52:30 09:57:10 57° 285° (WNW) 10:02:06 437.250
UNISAT 6 19 Dec 09:59:30 10:03:49 79° 76° (ENE) 10:08:17 437.425
DELFI C3 19 Dec 10:00:50 10:04:59 89° 96° (E) 10:09:05 145.870
50 SAT 19 Dec 10:03:48 10:06:59 21° 95° (E) 10:10:09 437.505
Oscar 11 19 Dec 10:11:50 10:16:08 58° 285° (WNW) 10:20:24 145.826/435.025
HUMSAT D 19 Dec 10:14:09 10:18:10 36° 98° (E) 10:22:10 437.325/437.525
DUCHIFAT 1 19 Dec 10:17:23 10:21:35 81° 76° (ENE) 10:25:47 145.980
CUSAT 1 19 Dec 10:17:45 10:20:58 39° 286° (WNW) 10:25:10 437.405
UKube-1 19 Dec 10:19:22 10:23:41 68° 285° (WNW) 10:27:58 .
CUBEBUG 2 19 Dec 10:21:21 10:25:59 75° 284° (WNW) 10:30:42 437.445
BUGSAT 1 19 Dec 10:23:26 10:27:32 76° 76° (ENE) 10:31:37 437.445
RS-15 19 Dec 10:23:56 10:32:09 25° 102° (ESE) 10:40:17 29.354- 29.394
BRITE-PL 19 Dec 10:26:07 10:28:48 15° 293° (WNW) 10:31:35 437.365/2234.400
CINEMA 3 19 Dec 10:28:47 10:33:11 39° 288° (WNW) 10:37:44 145.822/145.860
QB50P2 19 Dec 10:29:53 10:34:05 70° 258° (WSW) 10:38:18 145.880/145.840
ANTELSAT 19 Dec 10:31:33 10:35:41 44° 261° (W) 10:39:56 437.575/2403.000
ESTCUBE 1 19 Dec 10:33:21 10:36:46 21° 95° (E) 10:40:10 437.505/2401.250
VELOX 1 19 Dec 10:35:17 10:39:39 58° 101° (E) 10:44:00 145.980
ZACube-1 19 Dec 10:38:16 10:42:46 67° 285° (WNW) 10:47:19 437.345
POLYITAN 1 19 Dec 10:38:18 10:42:25 55° 260° (W) 10:46:34 437.675
AAUSAT CUBESAT 2 19 Dec 10:38:20 10:40:43 15° 294° (WNW) 10:43:05 437.432
YUBILEINY 19 Dec 10:39:37 10:47:57 48° 77° (ENE) 10:56:14 435.215
NANOSAT C BR1 19 Dec 10:41:51 10:45:56 50° 260° (W) 10:50:03 145.865
QB50P1 19 Dec 10:56:20 11:00:09 34° 262° (W) 11:04:00 145.935-145.965
UWE-3 19 Dec 11:03:01 11:07:03 31° 289° (WNW) 11:11:07 435.000/436.395/437.385
DANDE 19 Dec 11:04:36 11:06:35 14° 296° (WNW) 11:08:52 436.750
FUNcube-1 19 Dec 11:05:49 11:09:53 34° 289° (WNW) 11:13:59 145.935
O/OREOS (USA 219) 19 Dec 11:08:35 11:13:06 74° 251° (WSW) 11:17:36 437.305
TIGRISAT 19 Dec 11:09:30 11:12:23 18° 267° (W) 11:15:21 435.000
TISAT 1 19 Dec 11:10:08 11:11:14 11° 91° (E) 11:12:21 437.305
AISAT 19 Dec 11:17:48 11:22:01 45° 287° (WNW) 11:26:15 437.250
DX 1 19 Dec 11:24:37 11:26:45 14° 296° (WNW) 11:28:53 434.975-435.025
POPSAT HIP 1 19 Dec 11:26:14 11:28:52 16° 267° (W) 11:31:31 437.405
CUBEBUG 1 19 Dec 11:28:41 11:33:02 86° 103° (ESE) 11:37:22 437.445
50 SAT 19 Dec 11:38:38 11:42:10 28° 289° (WNW) 11:45:43 437.505
HUMSAT D 19 Dec 11:50:43 11:53:40 18° 293° (WNW) 11:56:38 437.325/437.525
ESTCUBE 1 19 Dec 12:09:41 12:13:40 32° 290° (WNW) 12:17:38 437.505/2401.250
VELOX 1 19 Dec 12:13:52 12:15:43 13° 296° (WNW) 12:17:34 145.980
JUGNU 19 Dec 12:15:41 12:16:17 10° 169° (S) 12:16:52 437.505
RS-15 19 Dec 12:32:17 12:43:15 77° 302° (WNW) 12:54:16 29.354- 29.394
YUBILEINY 19 Dec 12:36:55 12:44:23 34° 275° (W) 12:51:52 435.215
PCSat 19 Dec 12:41:32 12:44:41 16° 104° (ESE) 12:47:50 145.827
SPROUT 19 Dec 12:42:08 12:46:23 61° 285° (WNW) 12:50:37 437.525
Oscar 19 19 Dec 12:42:26 12:47:30 68° 74° (ENE) 12:52:39 437.125/150
TISAT 1 19 Dec 12:43:14 12:47:22 54° 286° (WNW) 12:51:29 437.305
Gurwin Techsat 1B 19 Dec 12:44:59 12:48:12 17° 63° (ENE) 12:51:24 435.225
BEESAT 3 19 Dec 12:47:35 12:51:00 26° 112° (ESE) 12:54:28 437.485
AIST 2 19 Dec 12:49:43 12:50:37 11° 107° (ESE) 12:51:30 435.215
SWISSCUBE 19 Dec 12:53:34 12:57:35 27° 96° (E) 13:01:33 437.505
ITUPSAT 1 19 Dec 12:53:37 12:57:28 24° 95° (E) 13:01:17 437.325
ITAMSAT 1 19 Dec 12:55:51 13:00:27 34° 69° (ENE) 13:05:04 435.822/435.867
ISS 19 Dec 13:13:07 13:16:03 29° 133° (SE) 13:18:58 145.825
BEESAT 19 Dec 13:18:25 13:23:00 45° 99° (E) 13:27:32 436.000
AUBIESAT-1 19 Dec 13:20:25 13:22:37 14° 95° (E) 13:24:42 437.475
BEESAT 2 19 Dec 13:25:30 13:29:33 64° 118° (ESE) 13:33:41 435.950
HORYU 2 19 Dec 13:34:25 13:37:07 16° 65° (ENE) 13:39:49 437.375
M-CUBED/EXP-1 PRIME 19 Dec 13:43:49 13:47:38 30° 100° (E) 13:51:08 437.505
AO-7 19 Dec 13:53:44 13:59:57 24° 56° (NE) 14:06:10 29.400- 29.500
JUGNU 19 Dec 14:01:41 14:04:26 13° 179° (S) 14:07:10 437.505
PCSat 19 Dec 14:22:09 14:27:30 63° 300° (WNW) 14:32:54 145.827
Gurwin Techsat 1B 19 Dec 14:22:23 14:27:37 61° 259° (W) 14:32:53 435.225
AIST 2 19 Dec 14:24:27 14:28:38 64° 302° (WNW) 14:32:54 435.215
Oscar 19 19 Dec 14:25:12 14:27:18 12° 269° (W) 14:29:24 437.125/150
BEESAT 3 19 Dec 14:25:37 14:29:06 26° 309° (NW) 14:32:38 437.485
ITUPSAT 1 19 Dec 14:31:08 14:35:21 32° 291° (WNW) 14:39:32 437.325
SWISSCUBE 19 Dec 14:31:18 14:35:22 29° 291° (WNW) 14:39:25 437.505
ITAMSAT 1 19 Dec 14:35:37 14:39:56 27° 264° (W) 14:44:16 435.822/435.867
STARS 19 Dec 14:41:21 14:45:37 46° 100° (E) 14:49:53 437.465
KKS-1 19 Dec 14:42:14 14:46:43 74° 102° (ESE) 14:51:11 437.445
RS-15 19 Dec 14:49:18 14:57:44 25° 329° (NNW) 15:06:18 29.354- 29.394
ISS 19 Dec 14:49:43 14:52:36 27° 329° (NNW) 14:55:30 145.825
AUBIESAT-1 19 Dec 14:53:45 14:57:53 43° 293° (WNW) 15:01:40 437.475
BEESAT 19 Dec 14:57:19 15:00:28 18° 295° (WNW) 15:03:36 436.000
SRMSAT 19 Dec 15:03:00 15:05:34 13° 177° (S) 15:08:08 437.500
BEESAT 2 19 Dec 15:06:08 15:08:14 14° 315° (NW) 15:10:21 435.950
HORYU 2 19 Dec 15:09:07 15:13:22 45° 261° (W) 15:17:41 437.375
JAS-2 19 Dec 15:18:29 15:24:49 30° 66° (ENE) 15:30:44 435.910
M-CUBED/EXP-1 PRIME 19 Dec 15:19:04 15:22:26 22° 298° (WNW) 15:25:36 437.505
AO-7 19 Dec 15:43:35 15:51:53 76° 254° (WSW) 16:00:16 29.400- 29.500
JUGNU 19 Dec 15:51:16 15:52:35 11° 190° (S) 15:53:54 437.505
PCSat 19 Dec 16:11:25 16:12:01 10° 319° (NW) 16:12:38 145.827
CUTE-I 19 Dec 16:17:34 16:20:20 15° 62° (ENE) 16:23:07 437.470
STARS 19 Dec 16:19:07 16:21:42 15° 295° (WNW) 16:24:17 437.465
KKS-1 19 Dec 16:22:14 16:22:43 10° 298° (WNW) 16:23:11 437.445
AIST 1 19 Dec 16:27:30 16:31:51 65° 95° (E) 16:36:11
GONETS M04 19 Dec 16:34:16 16:42:53 57° 79° (ENE) 16:51:23
SRMSAT 19 Dec 16:51:47 16:53:53 12° 187° (S) 16:55:58 437.500
JAS-2 19 Dec 17:01:55 17:09:28 55° 260° (W) 17:16:30 435.910
RS-15 19 Dec 17:10:08 17:16:01 15° 6° (N) 17:22:00 29.354- 29.394
MOZHAYETS 4 19 Dec 17:19:56 17:24:33 71° 284° (WNW) 17:29:07
Cubesat XI-IV 19 Dec 17:20:58 17:26:11 58° 73° (ENE) 17:31:24 437.490
